Regional Weather Roundup
Issued by NWS Memphis, TN

Home | Current Version | Previous Version | Text Only | Print | Product List | Glossary On
Versions: 1 2 3 4 5 6 7 8 9 10 11 12 13 14 15 16 17 18 19 20 21 22 23 24 25 26 27 28 29 30 31 32 33 34 35 36 37 38 39 40 41 42 43 44 45 46 47 48 49 50
000
ASUS44 KMEG 190310
RWRMEG
MEMPHIS CWA HOURLY WEATHER ROUNDUP
NATIONAL WEATHER SERVICE MEMPHIS TN
900 PM CST SAT NOV 18 2017

...WEST TENNESSEE...

CITY           SKY/WX    TMP DP  RH WIND       PRES   REMARKS
MEMPHIS INTL   CLEAR     48  38  68 NW13      30.03R
NWS MEMPHIS      N/A     48 N/A N/A MISG        N/A
JACKSON        CLOUDY    49  40  71 NW13      30.00R
COVINGTON      CLEAR     46  39  76 NW13      30.02R
BOLIVAR        CLOUDY    48  39  71 NW9G18    29.99R
LEXINGTON      CLOUDY    46  39  76 NW10G22   29.96R
SELMER         CLOUDY    48  37  66 N9G24     29.97R
SAVANNAH       CLOUDY    48  37  66 NW16G28   29.96R
DYERSBURG      CLEAR     47  38  71 NW7G16    30.01R
UNION CITY     PTCLDY    46  39  76 NW14G21   29.98R
HUNTINGDON     CLOUDY    46  39  76 NW7G15    29.95R


...EASTERN ARKANSAS...

CITY           SKY/WX    TMP DP  RH WIND       PRES   REMARKS
JONESBORO      CLEAR     48  35  60 NW12      30.05R
WEST MEMPHIS   CLEAR     48  39  71 NW9       30.04R
BATESVILLE     CLEAR     47  34  60 NW9G18    30.10R
NEWPORT        CLEAR     46  34  62 NW14      30.08R
WALNUT RIDGE     N/A     45  34  65 NW13      30.07R
BLYTHEVILLE    CLEAR     46  39  76 NW17G24   30.03R
SEARCY         CLEAR     48  34  58 NW8       30.11R
STUTTGART      CLEAR     48  37  65 NW17      30.11R
PINE BLUFF     CLEAR     50  36  58 NW10      30.12R
MONTICELLO     CLEAR     52  37  56 NW8       30.10R


...NORTH MISSISSIPPI...

CITY           SKY/WX    TMP DP  RH WIND       PRES   REMARKS
TUPELO         CLEAR     51  38  60 NW13G25   29.97R
BATESVILLE     CLEAR     49  36  60 NW7G16    30.04R
TUNICA           N/A    N/A N/A N/A NW13      30.06R
CLARKSDALE       N/A     50  39  66 NW12      30.06R
CORINTH        CLOUDY    50  37  62 NW15G23   29.98R
GREENWOOD      CLEAR     51  38  60 N13G21    30.05R
COLUMBUS       CLOUDY    53  42  66 NW22G32   29.95R
STARKVILLE       N/A    N/A N/A N/A MISG        N/A
GOLDEN TRIANGL CLOUDY    54  42  64 NW21G28   29.97R


...SOUTHEAST MISSOURI...

CITY           SKY/WX    TMP DP  RH WIND       PRES   REMARKS
KENNETT          N/A     46  34  61 NW9G18    30.01R
MALDEN         CLEAR     46  34  61 NW14      30.02R
WEST PLAINS    CLEAR     41  32  70 W7        30.07R
POPLAR BLUFF   CLEAR     45  33  63 NW12      30.01R
CAPE GIRARDEAU CLEAR     44  33  65 NW15      29.98R


...NORTHWEST ALABAMA...

CITY           SKY/WX    TMP DP  RH WIND       PRES   REMARKS
MUSCLE SHOALS  CLOUDY    50  38  63 NW16G32   29.93R


...MIDDLE TENNESSEE...

CITY           SKY/WX    TMP DP  RH WIND       PRES   REMARKS
NASHVILLE      MOCLDY    45  38  76 NW17G25   29.89R
CLARKSVILLE    CLOUDY    43  37  79 NW14G24   29.91R
COLUMBIA       CLOUDY    46  39  76 NW9G20    29.89R


...WESTERN KENTUCKY...

CITY           SKY/WX    TMP DP  RH WIND       PRES   REMARKS
PADUCAH        CLOUDY    45  35  68 NW13G24   29.95R
FORT CAMPBELL  CLOUDY    43  37  80 NW16G24   29.91R


...CENTRAL ARKANSAS...

CITY           SKY/WX    TMP DP  RH WIND       PRES   REMARKS
LITTLE ROCK    CLEAR     48  36  63 NW12      30.14R


SKY/WX REPORTED AS FAIR MEANS FEW OR NO CLOUDS BELOW
12 THOUSAND FEET.





USA.gov is the U.S. government's official web portal to all federal, state and local government web resources and services.